Flag for Australia Weather past 2 weeks in Gold Coast, Queensland, Australia

Now
64 °F

Scattered clouds.


Feels Like: 64 °F
Forecast: 54 / 70 °F
Wind: 13 mph from Southeast

Location: Coolangatta Aws Airport

Current Time: Jul 23, 2014 at 4:28:32 PM

Latest Report: Jul 23, 2014 at 3:30 PM


Visibility: N/A

Pressure: 30.15 "Hg

Humidity: 64%

Dew point: 52 °F

Location of Gold CoastLocation

Historic Weather in Gold Coast — Graph

°F

Gold Coast temperature yesterday

Maximum temperature yesterday: 68 °F (at 1:30 PM)
Minimum temperature yesterday: 50 °F (at 1:00 AM)
Average temperature yesterday: 58 °F

Past Weeks' High & Low Weather Summary

 TemperatureHumidityPressure
High70 °F (Jul 10, 1:30 PM)100% (Jul 12, 5:30 AM)30.36 "Hg (Jul 12, 5:30 AM)
Low34 °F (Jul 12, 5:30 AM)21% (Jul 10, 1:00 PM)29.77 "Hg (Jul 9, 4:00 PM)
Average56 °F67%30.08 "Hg
* Reported Jul 8 3:00 PM — Jul 23 3:00 PM, Gold Coast, Weather by CustomWeather, © 2014

Note: Actual official high and low records may vary slightly from our data, if they occured in-between our weather recording intervals... More about our weather records

Advertising

Gold Coast weather history for previous 24 hours

 ConditionsComfort  
Time TempWeatherWind HumidityBarometerVisibility
3:00 PM
Jul 23
66 °FBroken clouds.12 mph60%30.12 "HgN/A
2:00 PM68 °FScattered clouds.10 mph56%30.12 "HgN/A
1:00 PM66 °FScattered clouds.13 mph56%30.12 "HgN/A
12:30 PM68 °FScattered clouds.8 mph53%30.15 "HgN/A
12:00 PM68 °FSunny.10 mph56%30.15 "HgN/A
11:30 AM66 °FScattered clouds.12 mph60%30.18 "HgN/A
11:00 AM66 °FSunny.10 mph60%30.18 "HgN/A
10:30 AM66 °FSunny.12 mph60%30.21 "HgN/A
10:00 AM64 °FSunny.10 mph64%30.21 "HgN/A
9:00 AM61 °FSunny.13 mph68%30.21 "HgN/A
3:00 AM55 °FClear.7 mph82%30.12 "HgN/A
2:00 AM55 °FClear.9 mph82%30.15 "HgN/A
1:30 AM54 °FClear.9 mph88%30.15 "HgN/A
1:02 AM50 °FClear.3 mph94%30.15 "Hg4 mi
12:00 AM50 °FPassing clouds.3 mph94%30.15 "Hg5 mi
11:30 PM
Jul 22
52 °FClear.1 mph94%30.15 "HgN/A
11:00 PM52 °FPassing clouds.5 mph94%30.15 "HgN/A
10:30 PM54 °FClear.3 mph88%30.18 "HgN/A
10:00 PM55 °FPassing clouds.6 mph88%30.18 "HgN/A
9:30 PM55 °FPassing clouds.6 mph88%30.18 "HgN/A
9:00 PM55 °FPartly cloudy.8 mph94%30.18 "HgN/A
8:00 PM59 °FMostly cloudy.6 mph82%30.18 "HgN/A
7:30 PM57 °FPassing clouds.5 mph88%30.18 "HgN/A
7:00 PM59 °FPartly cloudy.6 mph82%30.18 "HgN/A
6:30 PM61 °FMostly cloudy.6 mph77%30.15 "HgN/A
6:00 PM61 °FMostly cloudy.5 mph77%30.15 "HgN/A
5:00 PM63 °FOvercast.7 mph73%30.12 "HgN/A
4:30 PM63 °FPassing clouds.12 mph73%30.09 "HgN/A
4:00 PM63 °FBroken clouds.13 mph73%30.09 "HgN/A
Weather by CustomWeather, © 2014

See weather overviewHow to use our weather pages